Regional Weather Roundup
Issued by NWS

Home | Current Version | Previous Version | Text Only | Print | Product List | Glossary Off
Versions: 1 2 3 4 5 6 7 8 9 10 11 12 13 14 15 16 17 18 19 20 21 22 23 24 25 26 27 28 29 30 31 32 33 34 35 36 37 38 39 40 41 42 43 44 45 46 47 48 49 50

000
ASUS45 KSLC 041610
RWRUT

UTAH REGIONAL WEATHER ROUNDUP
NATIONAL WEATHER SERVICE SALT LAKE CITY UT
1000 AM MDT SAT JUL 04 2015

UTZ001>011-023>025-041700-

NORTHERN UTAH

CITY           SKY/WX    TMP DP  RH WIND       PRES   REMARKS
BRIGHAM CITY   SUNNY     84  50  30 S5        29.96S
HILL AFB       PTSUNNY   80  51  37 E14       29.99S
LOGAN          SUNNY     80  53  39 N6        29.98S
OGDEN          MOSUNNY   85  50  29 S5        29.96S
PROVO AIRPORT  PTSUNNY   82  48  30 SE6       30.01
SALT LAKE CITY PTSUNNY   88  50  27 SE10      29.95R
VERNAL         MOSUNNY   82  47  29 SE6       30.08S
WENDOVER       SUNNY     88  46  23 E7        29.96S
HEBER CITY     CLOUDY    70  45  40 CALM      30.11R
WEST JORDAN    SUNNY     86  46  25 SE13      30.00R

$$

UTZ012>022-026-027-041700-

SOUTHERN/CENTRAL UTAH

CITY           SKY/WX    TMP DP  RH WIND       PRES   REMARKS
BLANDING       MOSUNNY   76  53  44 S6        30.23S
BRYCE CANYON   PTSUNNY   71  50  47 VRB3      30.27S
CEDAR CITY     CLOUDY    76  51  41 SW6       30.12R
DELTA          MOSUNNY   86  46  24 S13       30.01S
HANKSVILLE     MOSUNNY   86  50  28 S7        30.04S
MILFORD        PTSUNNY   84  48  28 S22       30.04R
MOAB/CYNLANDS  SUNNY     83  50  31 E8        30.03S
PRICE          MOSUNNY   80  51  36 SE7       30.14S
ST GEORGE      CLOUDY    88  55  33 CALM      29.95R
KANAB          CLOUDY    79  57  47 CALM      30.15R

$$

REGIONAL REPORTS     COLORADO/ARIZONA

CITY           SKY/WX    TMP DP  RH WIND       PRES   REMARKS
CRAIG, CO      MOSUNNY   80  49  33 N5        30.16S
GRAND JUNCTION MOSUNNY   82  50  32 S16       30.08F
RIFLE          MOSUNNY   75  53  46 NE3       30.15F
MONTROSE       PTSUNNY   75  52  44 SE15      30.19F
CORTEZ         SUNNY     79  51  37 SE3       30.17F
PAGE, AZ       PTSUNNY   84  55  36 VRB5      30.05R
GRAND CANYON   CLOUDY    66  54  65 SE3       30.24R
KINGMAN        CLOUDY    89  46  22 W7        29.99R
FLAGSTAFF      PTSUNNY   67  57  70 E7        30.26F

$$

REGIONAL REPORTS    NEVADA/IDAHO/WYOMING

CITY           SKY/WX    TMP DP  RH WIND       PRES   REMARKS
LAS VEGAS, NV  CLOUDY    93  44  18 S10       29.84R
ELY            CLOUDY    75  47  36 S13       30.14F
ELKO           MOSUNNY   74  51  44 CALM      30.05S
POCATELLO, ID  SUNNY     82  43  25 SW8       29.99S
BURLEY         MOSUNNY   83  53  35 W12       29.96R
EVANSTON, WY   PTSUNNY   72  48  42 S7        30.20R
ROCK SPRINGS   MOSUNNY   78  42  27 W8        30.15S
KEMMERER       MOSUNNY   79  37  22 W9        30.20S

$$



USA.gov is the U.S. government's official web portal to all federal, state and local government web resources and services.